Hourly Weather Kitzbuhel

Today, 30 July, Friday

Time Temperature Precipitation Wind Pressure Humidity
00:00 +15°C° 0.1 mm 1 mps 677 mmHg 94%
01:00 +15°C° 0.1 mm 1 mps 677 mmHg 94%
02:00 +15°C° 0.2 mm 1 mps 677 mmHg 94%
03:00 +15°C° 0.2 mm 1 mps 676 mmHg 95%
04:00 +14°C° 0.2 mm 2 mps 676 mmHg 95%
05:00 +16°C° 0.1 mm 1 mps 676 mmHg 92%
06:00 +18°C° 0.1 mm 1 mps 677 mmHg 90%
07:00 +19°C° 0.1 mm 1 mps 677 mmHg 87%
08:00 +21°C° 0.4 mm 1 mps 677 mmHg 82%
09:00 +22°C° 0.4 mm 1 mps 677 mmHg 77%
10:00 +24°C° 0.4 mm 1 mps 677 mmHg 71%
11:00 +24°C° 0.6 mm 1 mps 677 mmHg 68%
12:00 +25°C° 0.6 mm 1 mps 677 mmHg 64%
13:00 +26°C° 0.6 mm 1 mps 677 mmHg 60%
14:00 +25°C° 0.9 mm 1 mps 677 mmHg 62%
15:00 +25°C° 0.9 mm 1 mps 676 mmHg 65%
16:00 +25°C° 0.9 mm 1 mps 676 mmHg 67%
17:00 +23°C° 1.2 mm 1 mps 676 mmHg 75%
18:00 +21°C° 1.2 mm 1 mps 676 mmHg 83%
19:00 +20°C° 1.2 mm 1 mps 676 mmHg 91%
20:00 +19°C° 0.6 mm 1 mps 676 mmHg 92%
21:00 +19°C° 0.6 mm 1 mps 676 mmHg 93%
22:00 +18°C° 0.6 mm 1 mps 676 mmHg 93%
23:00 +18°C° 0.5 mm 1 mps 675 mmHg 94%

Tomorrow, 31 July, Saturday

Time Temperature Precipitation Wind Pressure Humidity
00:00 +18°C° 0.5 mm 1 mps 675 mmHg 94%
01:00 +15°C° 0.5 mm 0 mps 675 mmHg 94%
02:00 +15°C° 0.7 mm 0 mps 675 mmHg 96%
03:00 +15°C° 0.7 mm 0 mps 675 mmHg 97%
04:00 +14°C° 0.7 mm 0 mps 675 mmHg 98%
05:00 +14°C° 1.1 mm 0 mps 675 mmHg 98%
06:00 +15°C° 1.1 mm 0 mps 675 mmHg 98%
07:00 +15°C° 1.1 mm 0 mps 675 mmHg 98%
08:00 +16°C° 0.2 mm 0 mps 675 mmHg 95%
09:00 +18°C° 0.2 mm 1 mps 676 mmHg 92%
10:00 +19°C° 0.2 mm 1 mps 676 mmHg 89%
11:00 +19°C° 0.6 mm 1 mps 676 mmHg 91%
12:00 +19°C° 0.6 mm 1 mps 676 mmHg 93%
13:00 +18°C° 0.6 mm 1 mps 676 mmHg 94%
14:00 +18°C° 0.4 mm 1 mps 676 mmHg 94%
15:00 +18°C° 0.4 mm 1 mps 676 mmHg 93%
16:00 +18°C° 0.4 mm 1 mps 676 mmHg 93%
17:00 +18°C° 0.2 mm 1 mps 675 mmHg 94%
18:00 +16°C° 0.2 mm 0 mps 675 mmHg 95%
19:00 +16°C° 0.2 mm 0 mps 675 mmHg 96%
20:00 +15°C° 0.3 mm 0 mps 675 mmHg 96%
21:00 +15°C° 0.3 mm 1 mps 674 mmHg 96%
22:00 +15°C° 0.3 mm 1 mps 674 mmHg 97%
23:00 +15°C° 0.4 mm 1 mps 674 mmHg 97%

Day after tomorrow, 1 August, Sunday

Time Temperature Precipitation Wind Pressure Humidity
00:00 +15°C° 0.4 mm 1 mps 673 mmHg 97%
01:00 +14°C° 0.4 mm 1 mps 673 mmHg 97%
02:00 +14°C° 0.2 mm 1 mps 673 mmHg 97%
03:00 +14°C° 0.2 mm 1 mps 672 mmHg 98%
04:00 +14°C° 0.2 mm 1 mps 672 mmHg 98%
05:00 +14°C° 0.4 mm 1 mps 673 mmHg 98%
06:00 +15°C° 0.4 mm 1 mps 673 mmHg 97%
07:00 +15°C° 0.4 mm 1 mps 673 mmHg 97%
08:00 +14°C° 0.8 mm 1 mps 673 mmHg 97%
09:00 +14°C° 0.8 mm 2 mps 674 mmHg 97%
10:00 +13°C° 0.8 mm 2 mps 674 mmHg 97%
11:00 +13°C° 0.8 mm 1 mps 674 mmHg 97%
12:00 +13°C° 0.8 mm 1 mps 674 mmHg 97%
13:00 +13°C° 0.8 mm 1 mps 674 mmHg 97%
14:00 +13°C° 0.7 mm 1 mps 674 mmHg 97%
15:00 +13°C° 0.7 mm 1 mps 674 mmHg 96%
16:00 +12°C° 0.7 mm 0 mps 674 mmHg 95%
17:00 +13°C° 1.4 mm 1 mps 674 mmHg 95%
18:00 +13°C° 1.4 mm 1 mps 675 mmHg 95%
19:00 +13°C° 1.4 mm 1 mps 675 mmHg 95%
20:00 +12°C° 1.1 mm 1 mps 675 mmHg 96%
21:00 +12°C° 1.1 mm 1 mps 675 mmHg 96%
22:00 +12°C° 1.1 mm 1 mps 675 mmHg 97%
23:00 +12°C° 0.8 mm 1 mps 675 mmHg 97%

2 August, Monday

Time Temperature Precipitation Wind Pressure Humidity
00:00 +12°C° 0.8 mm 1 mps 676 mmHg 97%
01:00 +12°C° 0.8 mm 1 mps 676 mmHg 97%
02:00 +12°C° 0.3 mm 1 mps 676 mmHg 97%
03:00 +12°C° 0.3 mm 1 mps 676 mmHg 97%
04:00 +11°C° 0.3 mm 0 mps 676 mmHg 97%
05:00 +11°C° 0.1 mm 0 mps 676 mmHg 96%
06:00 +11°C° 0.1 mm 0 mps 676 mmHg 96%
07:00 +12°C° 0.1 mm 0 mps 677 mmHg 95%
08:00 +13°C° 0.4 mm 0 mps 677 mmHg 91%
09:00 +15°C° 0.4 mm 1 mps 677 mmHg 87%
10:00 +16°C° 0.4 mm 1 mps 677 mmHg 83%
11:00 +16°C° 0.5 mm 1 mps 677 mmHg 81%
12:00 +18°C° 0.5 mm 1 mps 677 mmHg 79%
13:00 +18°C° 0.5 mm 1 mps 677 mmHg 77%
14:00 +18°C° 0.6 mm 1 mps 678 mmHg 79%
15:00 +18°C° 0.6 mm 1 mps 678 mmHg 81%
16:00 +16°C° 0.6 mm 1 mps 678 mmHg 83%
17:00 +16°C° 0.3 mm 1 mps 678 mmHg 86%
18:00 +14°C° 0.3 mm 0 mps 678 mmHg 89%
19:00 +14°C° 0.3 mm 0 mps 678 mmHg 92%
20:00 +13°C° 0.2 mm 0 mps 678 mmHg 93%
21:00 +13°C° 0.2 mm 1 mps 678 mmHg 94%
22:00 +12°C° 0.2 mm 1 mps 678 mmHg 94%
23:00 +11°C° 0 mm 1 mps 678 mmHg 94%

3 August, Tuesday

Time Temperature Precipitation Wind Pressure Humidity
00:00 +11°C° 0 mm 1 mps 678 mmHg 94%
01:00 +11°C° 0 mm 1 mps 678 mmHg 94%
02:00 +11°C° 0 mm 1 mps 678 mmHg 93%
03:00 +10°C° 0 mm 1 mps 678 mmHg 93%
04:00 +9°C° 0 mm 2 mps 677 mmHg 93%
05:00 +12°C° 0 mm 1 mps 678 mmHg 91%
06:00 +13°C° 0 mm 1 mps 678 mmHg 89%
07:00 +14°C° 0 mm 1 mps 678 mmHg 87%
08:00 +16°C° 0 mm 1 mps 678 mmHg 76%
09:00 +20°C° 0 mm 1 mps 678 mmHg 66%
10:00 +22°C° 0 mm 1 mps 678 mmHg 55%
11:00 +22°C° 0.1 mm 1 mps 678 mmHg 54%
12:00 +23°C° 0.1 mm 1 mps 677 mmHg 54%
13:00 +23°C° 0.1 mm 2 mps 677 mmHg 53%
14:00 +22°C° 0.7 mm 1 mps 677 mmHg 64%
15:00 +21°C° 0.7 mm 1 mps 676 mmHg 75%
16:00 +19°C° 0.7 mm 1 mps 676 mmHg 87%
17:00 +18°C° 1 mm 1 mps 675 mmHg 89%
18:00 +16°C° 1 mm 1 mps 675 mmHg 91%
19:00 +16°C° 1 mm 1 mps 675 mmHg 93%
20:00 +14°C° 5.6 mm 1 mps 676 mmHg 95%
21:00 +13°C° 5.6 mm 2 mps 677 mmHg 96%
22:00 +12°C° 5.6 mm 2 mps 678 mmHg 98%
23:00 +12°C° 2 mm 2 mps 678 mmHg 98%

4 August, Wednesday

Time Temperature Precipitation Wind Pressure Humidity
00:00 +11°C° 2 mm 1 mps 678 mmHg 98%
01:00 +11°C° 2 mm 1 mps 678 mmHg 97%
02:00 +11°C° 0.6 mm 1 mps 678 mmHg 97%
03:00 +11°C° 0.6 mm 1 mps 678 mmHg 97%
04:00 +11°C° 0.6 mm 1 mps 678 mmHg 96%
05:00 +11°C° 0 mm 1 mps 678 mmHg 95%
06:00 +10°C° 0 mm 0 mps 678 mmHg 95%
07:00 +11°C° 0 mm 0 mps 678 mmHg 94%
08:00 +11°C° 0 mm 0 mps 678 mmHg 90%
09:00 +12°C° 0 mm 0 mps 678 mmHg 86%
10:00 +13°C° 0 mm 0 mps 678 mmHg 82%
11:00 +15°C° 0 mm 1 mps 678 mmHg 76%
12:00 +16°C° 0 mm 1 mps 678 mmHg 70%
13:00 +18°C° 0 mm 1 mps 678 mmHg 64%
14:00 +18°C° 0.2 mm 1 mps 678 mmHg 68%
15:00 +16°C° 0.2 mm 1 mps 678 mmHg 72%
16:00 +16°C° 0.2 mm 1 mps 678 mmHg 77%
17:00 +15°C° 0.2 mm 1 mps 678 mmHg 81%
18:00 +14°C° 0.2 mm 0 mps 678 mmHg 84%
19:00 +13°C° 0.2 mm 0 mps 678 mmHg 88%
20:00 +13°C° 0 mm 1 mps 678 mmHg 90%
21:00 +12°C° 0 mm 1 mps 678 mmHg 91%
22:00 +11°C° 0 mm 1 mps 678 mmHg 92%
23:00 +11°C° 0 mm 1 mps 677 mmHg 92%
Show more